EHI
75 68 61 45 22 8 3 1 1 0 0 0 0 0 0 0 0 0 0 0 0 0 0 0 0 0 0 0 0 0 0 0 0 0 0 0 0 0 0 0 0 0 0
75 68 62 48 25 9 4 2 1 1 0 0 0 0 0 0 0 0 0 0 0 0 0 0 0 0 0 0 0 0 0 0 0 0 0 0 0 0 0 0 0 0 0
63 57 55 48 26 10 4 3 2 1 2 1 1 1 0 0 0 0 0 0 0 0 0 0 0 0 0 0 0 0 0 0 0 0 0 0 0 0 0 0 0 0 0
45 44 45 43 27 10 5 4 3 4 4 4 4 3 1 0 0 0 0 0 0 0 0 0 0 0 0 0 0 0 0 0 0 1 1 0 0 0 0 0 0 0 0
41 42 43 40 28 12 4 4 5 5 7 7 6 4 3 2 2 1 0 0 0 0 0 0 0 0 0 0 0 0 0 0 1 2 2 1 0 0 0 0 0 0 0
44 41 40 37 27 13 5 4 6 7 7 8 8 7 5 4 4 3 1 0 0 0 1 1 0 0 0 0 0 0 0 0 2 3 4 4 3 1 0 0 0 0 0
46 38 33 33 27 16 10 8 8 8 9 11 12 10 8 7 6 4 2 0 0 1 1 1 0 0 0 0 0 0 0 1 3 4 9 12 8 3 1 0 0 0 0
49 37 27 26 24 19 15 13 13 12 12 13 13 11 9 7 5 4 2 1 0 1 1 1 0 0 0 0 0 0 0 1 2 4 13 19 15 9 5 1 0 0 0
50 35 20 16 16 15 14 14 16 14 12 10 9 7 6 5 5 4 2 1 0 0 0 0 0 0 0 0 0 0 0 0 1 3 13 26 28 23 13 4 0 0 0
46 30 15 11 10 9 9 12 13 11 9 7 5 3 2 3 4 5 4 2 1 1 0 1 1 0 0 0 0 0 0 0 1 4 18 39 49 39 23 9 2 0 0
45 32 22 19 14 11 13 15 10 7 7 5 4 3 3 4 5 8 10 11 8 4 2 2 3 1 0 0 1 2 1 0 2 8 28 55 65 53 35 19 8 2 0
47 41 40 38 28 23 28 29 19 16 17 11 8 11 10 8 10 15 23 25 18 10 6 5 4 3 1 1 5 6 3 1 3 10 33 60 69 60 46 32 18 7 2
47 48 56 58 48 42 45 41 34 36 37 26 23 29 25 22 23 28 36 36 27 18 13 12 9 5 3 5 9 8 3 1 3 10 30 55 66 62 54 44 30 16 9
51 54 62 68 63 59 58 51 44 47 46 41 42 45 42 40 37 39 44 43 36 29 26 25 20 13 10 11 11 8 4 3 4 10 27 49 61 62 58 51 41 27 18
56 58 64 70 70 68 65 59 51 47 46 46 49 49 47 45 42 42 45 45 42 38 36 34 30 23 20 19 15 12 10 8 8 11 24 41 55 60 59 54 48 39 32
55 58 63 67 69 67 61 56 50 44 42 44 44 43 41 38 36 38 40 37 35 35 36 34 31 25 23 21 17 14 14 14 13 13 19 32 46 54 56 55 52 48 43
62 64 62 61 63 60 51 43 37 36 36 36 36 35 33 29 27 28 30 28 26 27 29 28 25 21 17 16 14 11 12 14 13 13 15 23 33 41 47 50 52 50 47
73 72 65 58 59 55 45 35 29 28 29 27 25 27 26 21 17 18 20 21 20 21 22 21 19 15 12 11 10 7 8 10 10 9 11 15 21 27 34 39 44 47 45
72 70 64 59 57 51 43 35 28 24 22 20 19 21 21 16 12 12 15 16 14 14 16 17 17 14 10 7 6 5 5 7 7 5 5 8 13 18 22 26 33 37 37
58 57 56 56 51 43 38 35 28 22 18 16 17 19 18 12 9 8 9 10 8 8 10 14 16 14 9 4 2 1 2 3 3 2 1 3 7 12 16 21 28 30 28
44 45 48 48 42 36 33 30 25 20 16 13 15 17 13 8 6 5 5 5 5 5 6 9 10 8 5 3 0 0 0 0 1 2 2 2 3 7 12 19 27 31 30
35 38 41 42 38 30 24 20 18 15 12 11 15 16 12 8 6 5 5 4 3 3 4 5 5 4 2 1 0 0 0 0 1 3 4 3 2 4 8 12 20 26 30
27 31 38 42 35 24 15 11 10 11 10 11 17 20 17 12 9 6 5 4 3 3 3 3 3 2 1 0 0 0 1 1 1 2 2 2 1 3 4 4 8 14 17
19 27 41 46 37 24 15 11 9 9 9 11 19 23 19 14 9 6 4 4 4 3 3 2 1 1 1 0 0 0 1 2 1 0 0 0 0 1 1 1 2 6 8
15 24 40 47 42 32 23 17 14 10 8 9 14 16 13 9 7 4 3 3 4 3 2 1 0 0 1 1 0 0 1 1 1 0 0 0 0 0 0 1 1 2 4
14 21 35 46 44 36 28 22 17 12 9 8 9 9 7 4 3 2 2 3 4 3 2 1 0 0 1 1 1 0 0 1 0 0 0 0 0 0 1 2 2 1 2
Wind_Speed
19 18 17 15 14 13 12 12 12 12 12 12 12 12 12 12 12 12 12 11 11 11 11 10 10 10 10 10 10 10 10 10 10 11 12 12 12 10 9 9 12 13 15
21 19 17 15 14 13 12 11 11 11 12 11 12 12 11 12 11 11 10 10 10 10 10 10 10 9 9 9 9 9 8 8 8 9 11 12 11 9 7 6 12 11 14
21 18 17 15 14 13 11 11 11 11 11 11 11 11 11 11 11 10 10 9 9 9 9 9 9 9 9 8 8 7 6 5 5 5 7 8 9 10 11 14 16 14 13
20 17 15 16 14 13 12 11 11 11 11 11 11 11 11 10 10 9 9 8 8 8 8 8 8 8 8 7 7 5 4 2 1 2 3 5 8 11 12 13 14 13 12
19 17 16 16 14 13 12 11 10 11 11 11 11 10 10 10 9 9 8 7 7 7 7 7 7 7 7 6 5 3 1 1 3 5 1 7 8 10 12 12 12 12 12
19 17 16 16 14 13 12 11 10 10 10 10 10 10 9 9 8 8 7 7 6 6 5 6 6 6 6 5 3 1 1 4 6 4 3 9 8 10 12 11 11 11 11
19 18 16 16 15 13 12 11 10 10 10 10 9 9 9 8 7 7 6 6 6 5 5 5 5 5 5 4 2 1 3 5 7 4 4 9 9 11 11 11 11 11 11
20 19 16 16 15 13 12 11 10 10 9 9 8 8 8 7 7 6 6 6 5 5 5 5 4 4 4 4 2 2 4 8 6 3 6 10 13 13 12 11 10 11 11
21 18 15 14 13 12 11 11 10 9 9 8 7 7 7 6 7 7 6 6 6 5 4 4 4 4 4 4 4 4 5 8 9 5 6 9 14 14 13 11 11 11 11
18 17 15 14 12 11 10 11 10 9 9 8 7 7 6 7 7 8 8 8 7 6 6 5 5 5 5 6 7 7 7 8 8 8 3 10 17 16 14 12 11 11 11
14 13 14 14 12 10 11 12 11 10 9 8 7 8 6 5 6 7 8 9 9 8 7 6 6 6 6 8 9 9 7 6 9 5 3 15 18 17 16 13 12 12 11
11 11 11 11 8 7 7 9 7 7 7 6 5 6 4 3 2 2 6 8 8 8 7 7 7 7 7 5 8 9 5 8 8 4 6 19 17 18 17 15 13 12 12
9 9 12 10 6 5 5 5 3 2 4 4 4 4 3 1 0 0 2 4 4 6 4 5 6 4 4 3 2 4 6 6 3 2 7 18 17 17 17 16 15 14 14
8 9 10 9 6 4 4 2 2 2 3 2 3 3 2 1 0 0 0 1 2 1 2 2 2 4 3 3 2 4 5 4 3 1 6 15 16 16 17 17 16 16 15
8 8 9 8 6 4 3 2 2 2 2 1 1 1 1 1 1 0 0 0 2 2 2 2 2 2 2 3 3 4 4 5 4 3 3 11 13 15 16 17 17 17 17
7 7 8 8 7 5 3 1 1 2 1 1 1 1 1 1 1 1 1 1 2 2 1 2 2 2 2 2 3 4 5 5 5 4 3 7 13 14 14 16 17 18 18
7 7 7 8 7 4 3 1 1 1 2 1 1 2 2 2 1 1 1 2 1 1 1 2 2 2 3 3 4 6 5 5 5 5 5 4 6 12 15 16 16 17 18
9 8 5 6 7 5 2 1 1 2 1 1 1 2 2 1 0 1 1 0 1 2 2 2 2 2 3 3 3 4 4 5 6 6 6 6 5 6 12 17 17 18 19
9 8 6 6 5 4 2 1 1 1 0 1 1 2 2 1 1 1 1 0 1 2 2 3 1 1 2 3 4 5 5 5 6 7 7 8 7 7 7 13 20 20 21
9 7 6 5 5 3 2 1 0 0 1 1 2 2 2 1 1 2 1 1 2 2 2 2 3 3 3 4 6 6 4 5 5 6 7 7 7 9 9 9 11 15 22
8 7 5 5 3 2 1 1 1 1 1 0 1 3 2 0 1 1 2 2 2 2 2 3 2 3 3 3 4 4 5 6 6 6 5 5 6 6 6 7 6 7 9
7 6 6 5 4 2 2 1 0 0 2 1 1 2 1 0 1 2 2 2 3 3 4 3 2 2 4 3 3 3 4 4 4 5 4 5 5 3 4 6 5 6 6
7 6 5 5 4 2 2 1 1 1 1 1 1 0 1 1 1 2 2 2 3 4 3 3 3 3 3 4 3 3 3 3 3 3 3 2 3 3 3 3 5 6 8
7 7 7 5 3 2 1 2 3 2 2 3 2 1 2 2 2 2 2 2 2 3 4 5 3 3 3 4 4 3 4 3 3 4 4 3 3 3 4 4 4 4 6
8 7 7 5 4 2 1 2 2 3 3 3 4 4 3 3 3 3 2 1 1 2 4 5 5 4 3 4 4 4 4 3 4 4 5 4 3 3 3 4 3 3 3
6 6 7 6 4 2 0 1 2 3 4 4 5 4 3 3 2 2 2 1 1 2 4 4 4 5 4 5 4 4 4 4 3 3 4 4 4 4 3 2 3 3 3
Wind_Direction
120 125 125 124 124 126 130 131 129 125 123 119 116 112 110 107 104 101 98 96 93 89 86 83 80 77 74 70 69 73 75 78 82 87 90 89 90 90 94 107 108 99 103
120 124 123 123 123 125 128 131 132 130 128 125 122 120 117 114 110 107 104 101 96 91 87 84 82 80 78 77 78 80 80 84 91 101 107 100 92 84 81 99 100 108 109
118 124 124 121 122 122 123 128 132 134 134 130 127 124 122 119 116 113 110 105 101 96 91 87 85 83 82 81 82 83 85 91 105 127 144 119 103 87 88 97 104 110 110
123 131 125 123 123 122 122 125 131 135 137 134 131 129 127 125 123 120 116 111 106 101 97 93 91 90 87 85 85 85 84 87 119 206 202 130 113 99 99 104 109 112 113
119 118 122 126 123 123 122 123 127 131 133 135 133 132 131 131 130 128 125 121 115 107 104 101 99 99 97 94 90 86 58 336 301 266 192 102 103 115 111 113 116 117 118
121 121 123 125 123 123 122 122 124 126 129 131 132 133 135 135 133 133 132 131 127 121 119 112 110 109 110 108 105 90 319 309 292 262 145 119 117 127 123 124 124 124 124
123 121 126 125 123 123 124 125 125 126 128 132 135 137 138 141 141 140 140 140 138 134 129 128 124 125 129 130 137 208 292 299 280 283 124 116 126 134 133 133 133 132 131
124 123 126 127 127 127 128 128 130 132 134 137 141 144 147 151 154 155 156 154 150 145 145 146 145 149 153 163 185 243 282 293 289 290 125 122 138 142 142 143 143 143 142
123 128 137 137 135 135 135 136 137 140 144 148 152 157 163 171 175 175 176 173 169 167 168 171 173 178 183 191 207 237 267 284 293 277 141 134 148 148 150 153 154 153 153
128 136 142 145 145 152 151 150 150 155 158 162 167 174 182 196 197 197 196 192 187 184 187 194 198 200 205 210 216 228 249 274 267 267 145 147 154 154 157 162 164 163 163
125 135 143 141 150 160 159 155 162 170 174 177 182 190 200 218 210 203 211 184 188 193 197 205 212 216 219 220 220 223 234 250 255 253 145 151 160 159 162 168 173 174 173
125 129 122 127 135 149 149 146 173 178 170 193 180 180 203 228 247 197 167 178 193 202 207 210 217 224 227 230 214 213 231 242 260 258 143 155 164 164 166 171 179 182 183
125 117 116 114 123 127 118 150 148 153 146 186 169 169 192 229 280 63 146 167 196 213 220 208 212 224 225 228 190 190 234 255 255 260 155 163 170 172 170 176 183 189 191
119 111 115 118 112 82 78 101 124 120 142 164 145 167 153 153 247 273 97 162 199 211 227 232 217 221 235 250 230 219 236 253 265 263 167 173 177 179 177 182 188 195 196
111 106 100 104 99 92 71 15 67 75 90 97 100 126 116 168 217 282 321 279 256 225 207 220 228 238 243 247 248 247 258 260 269 273 182 185 188 188 185 189 194 200 202
122 115 109 108 105 100 98 72 34 61 73 51 95 115 90 66 56 352 270 247 254 245 200 211 219 227 233 247 263 261 256 263 262 255 238 200 199 199 198 197 202 206 208
120 107 107 109 105 103 93 65 86 72 81 76 125 103 76 51 44 292 268 255 275 277 239 233 245 240 241 236 240 250 252 252 255 250 243 226 209 209 210 209 208 211 214
99 94 88 101 111 110 103 68 41 22 52 70 56 85 84 68 42 281 274 279 301 283 257 239 230 241 251 252 248 248 244 240 243 241 237 230 224 224 217 217 215 215 218
96 100 97 87 96 101 107 108 109 110 47 46 72 84 84 45 335 302 312 350 283 291 292 299 322 301 287 283 272 250 236 236 234 241 231 227 223 223 220 217 218 218 220
102 105 107 99 94 106 105 96 90 126 183 144 125 119 94 33 15 353 310 7 322 288 297 309 298 282 274 269 275 281 263 249 239 236 234 230 223 222 222 222 212 219 221
119 121 121 112 109 103 82 38 28 39 336 224 143 116 111 52 18 325 325 335 305 299 303 286 284 294 279 260 266 273 263 247 238 232 226 229 230 227 220 217 203 204 213
132 131 133 128 124 122 100 77 165 354 306 307 56 109 143 102 359 302 34 335 326 324 298 284 281 281 292 291 278 287 287 276 262 247 221 218 223 226 231 233 215 206 211
138 140 125 112 104 76 65 336 5 20 286 314 351 75 75 28 341 318 322 315 328 314 311 334 305 290 287 294 279 267 282 287 315 298 276 246 218 215 226 234 225 214 214
143 137 123 121 112 85 39 18 356 334 332 326 342 38 26 330 297 291 291 301 322 321 320 311 337 339 307 293 290 272 257 273 292 306 306 292 256 232 229 239 247 219 214
150 145 137 131 122 105 32 13 338 337 340 346 355 346 339 299 271 259 252 263 305 299 305 318 318 309 303 295 297 301 294 281 251 250 278 291 293 265 236 227 236 230 221
153 149 141 134 130 133 269 346 344 344 341 330 320 311 307 301 301 302 301 31 315 306 313 310 302 292 279 280 285 289 291 283 269 255 261 272 275 273 263 239 227 221 223